FW5856 Weather Reports


time (UTC)temp
F
wind
direction
speed
knots
gust
knots
rain 1hr
in
rain 24hr
in
rain mn
in
humidity
%
barometer
mb
20260507023046 48 41 0.0 4.3 0.00 0.00 0.00 43 1014.4
20260507021557 49 328 0.9 1.7 0.00 0.00 0.00 41 1014.1
20260507020053 50 328 1.7 5.2 0.00 0.00 0.00 40 1014.2
20260507014557 50 305 4.3 7.0 0.00 0.00 0.00 38 1014.1
20260507013042 51 282 5.2 10.4 0.00 0.00 0.00 38 1014.1
20260507011542 52 292 7.8 12.2 0.00 0.00 0.00 36 1014.1
20260507004547 53 316 7.0 13.9 0.00 0.00 0.00 36 1014.2
20260507003048 53 293 8.7 14.8 0.00 0.00 0.00 35 1014.3
20260507001552 53 278 13.9 20.0 0.00 0.00 0.00 34 1014.4
20260507000051 54 295 11.3 24.3 0.00 0.00 0.00 35 1014.3
20260506234552 53 300 13.0 19.1 0.00 0.00 0.00 36 1014.5
20260506233047 54 286 12.2 18.2 0.00 0.00 0.00 34 1014.5
20260506231549 54 289 11.3 15.6 0.00 0.00 0.00 35 1014.6
20260506230045 53 307 10.4 20.0 0.00 0.00 0.00 37 1014.6
20260506224542 53 322 15.6 22.6 0.00 0.00 0.00 36 1014.6
20260506223038 54 303 13.0 21.7 0.00 0.00 0.00 35 1014.9
20260506221549 54 297 15.6 20.9 0.00 0.00 0.00 36 1015.0
20260506220039 54 289 15.6 23.5 0.00 0.00 0.00 36 1014.9
20260506214545 52 311 7.8 18.2 0.00 0.00 0.00 41 1015.0
20260506213042 52 319 9.6 18.2 0.00 0.00 0.00 39 1015.3
20260506211540 52 322 13.0 18.2 0.00 0.00 0.00 39 1015.4
20260506210051 51 303 13.0 19.1 0.00 0.00 0.00 39 1015.7
20260506204549 52 276 14.8 20.0 0.00 0.00 0.00 39 1015.9
20260506203051 51 301 11.3 18.2 0.00 0.00 0.00 40 1016.0
20260506201606 51 290 9.6 19.1 0.00 0.00 0.00 42 1016.1
20260506200050 50 293 8.7 25.2 0.00 0.00 0.00 43 1016.2
20260506194552 50 271 9.6 20.0 0.00 0.00 0.00 43 1016.4
20260506193051 50 299 13.9 20.0 0.00 0.00 0.00 44 1016.5
20260506191546 50 287 11.3 21.7 0.00 0.00 0.00 43 1016.7
20260506190045 49 292 11.3 18.2 0.00 0.00 0.00 44 1016.6
20260506184550 49 327 11.3 20.9 0.00 0.00 0.00 44 1016.8
20260506183054 48 300 14.8 20.9 0.00 0.00 0.00 45 1017.1
20260506181550 48 298 13.9 22.6 0.00 0.00 0.00 48 1017.0
20260506180051 46 313 16.5 22.6 0.00 0.00 0.00 47 1017.3
20260506174545 46 315 13.9 19.1 0.00 0.00 0.00 48 1017.5
20260506173112 46 307 12.2 19.1 0.00 0.00 0.00 49 1017.5
20260506171553 45 292 9.6 19.1 0.00 0.00 0.00 50 1017.6
20260506170042 45 311 11.3 20.9 0.00 0.00 0.00 51 1018.0
20260506164546 45 302 10.4 18.2 0.00 0.00 0.00 53 1018.0
20260506163101 44 340 7.8 15.6 0.00 0.00 0.00 54 1018.1
20260506161545 45 319 11.3 16.5 0.00 0.00 0.00 53 1018.1
20260506160046 44 331 8.7 14.8 0.00 0.00 0.00 56 1018.1
20260506154547 43 305 7.8 15.6 0.00 0.00 0.00 56 1018.3
20260506153048 43 299 8.7 13.9 0.00 0.00 0.00 57 1018.3
20260506151546 42 285 8.7 11.3 0.00 0.00 0.00 57 1018.4
20260506150116 42 309 8.7 13.0 0.00 0.00 0.00 59 1018.3
20260506144547 41 295 7.0 12.2 0.00 0.00 0.00 59 1018.3
20260506143042 40 305 5.2 9.6 0.00 0.00 0.00 63 1018.4
20260506141554 40 287 2.6 6.1 0.00 0.00 0.00 67 1018.4
20260506140055 39 304 4.3 7.0 0.00 0.00 0.00 68 1018.3
20260506134546 38 309 2.6 5.2 0.00 0.00 0.00 72 1018.2
20260506133045 36 302 4.3 6.1 0.00 0.00 0.00 72 1018.1
20260506131543 36 309 3.5 5.2 0.00 0.00 0.00 73 1018.1
20260506130053 35 304 1.7 4.3 0.00 0.00 0.00 75 1017.9
20260506124540 34 0 0.0 2.6 0.00 0.00 0.00 77 1017.8
20260506123049 33 320 0.9 2.6 0.00 0.00 0.00 77 1017.7
20260506121545 31 329 0.0 1.7 0.00 0.00 0.00 78 1017.6
20260506120050 30 329 0.9 3.5 0.00 0.00 0.00 78 1017.3
20260506114549 30 329 0.0 3.5 0.00 0.00 0.00 78 1017.1
20260506113048 29 324 0.9 3.5 0.00 0.00 0.00 79 1016.7
20260506111552 28 297 0.9 2.6 0.00 0.00 0.00 79 1016.5
20260506110047 29 310 0.0 0.9 0.00 0.00 0.00 78 1016.3
20260506104545 29 0 0.0 1.7 0.00 0.00 0.00 77 1016.5
20260506103046 28 310 0.9 2.6 0.00 0.00 0.00 78 1016.4
20260506101548 29 288 0.0 1.7 0.00 0.00 0.00 77 1016.2
20260506100047 29 0 0.9 1.7 0.00 0.00 0.00 76 1016.2
20260506094548 29 288 0.9 1.7 0.00 0.00 0.00 76 1016.0
20260506093103 29 252 0.9 1.7 0.00 0.00 0.00 76 1016.0
20260506091546 31 348 0.9 3.5 0.00 0.00 0.00 73 1015.7
20260506090055 31 339 2.6 5.2 0.00 0.00 0.00 72 1015.9
20260506084542 31 331 1.7 2.6 0.00 0.00 0.00 73 1015.6
20260506083043 30 330 1.7 2.6 0.00 0.00 0.00 73 1015.3
20260506081548 30 330 1.7 2.6 0.00 0.00 0.00 73 1015.3
20260506073042 31 319 2.6 4.3 0.00 0.00 0.00 70 1015.6
20260506071548 32 0 0.0 1.7 0.00 0.00 0.00 70 1015.6
20260506061556 35 303 2.6 4.3 0.00 0.00 0.00 65 1015.3
20260506044541 37 311 2.6 3.5 0.00 0.00 0.00 61 1015.0
20260506043052 38 340 2.6 5.2 0.00 0.00 0.00 60 1015.2
20260506041602 38 311 4.3 6.1 0.00 0.00 0.00 59 1015.2
20260506040054 39 302 3.5 5.2 0.00 0.00 0.00 58 1015.2
20260506034544 39 323 1.7 4.3 0.00 0.00 0.00 58 1015.1
20260506033043 39 308 2.6 4.3 0.00 0.00 0.00 57 1015.0
20260506031544 40 308 3.5 5.2 0.00 0.00 0.00 55 1015.0
20260506030038 41 302 3.5 6.1 0.00 0.00 0.00 54 1014.8
20260506024550 41 320 4.3 7.8 0.00 0.00 0.00 53 1014.7